Weather History for Oshkosh, WI

Change the Weather History Date:

Wednesday, November 2, 2011

  Actual Average Record
Temperature  
Mean Temperature 44 °F -  
Max Temperature 55 °F 51 °F 71 °F (1961)
Min Temperature 35 °F 36 °F 10 °F (1951)
Degree Days  
Heating Degree Days 21    
Moisture  
Dew Point 41 °F    
Average Humidity 88    
Maximum Humidity 93    
Minimum Humidity 67    
Precipitation  
Precipitation 0.86 in - - ()
Sea Level Pressure  
Sea Level Pressure 30.06 in    
Wind  
Wind Speed 7 mph (North)    
Max Wind Speed 18 mph    
Max Gust Speed 28 mph    
Visibility 7 miles    
Events Rain    
Averages and records for this station are not official NWS values.
T = Trace of Precipitation, MM = Missing Value Source: NWS Daily Summary

Daily Weather History Graph

Daily Weather History Graph

Search for Another Location

Airport:

Trip Planner

Search our weather history database for the weather conditions in past years. The results will help you decide how hot, cold, wet, or windy it might be!

Date:

Astronomy

Nov. 02, 2011 Rise Set
Actual Time 7:31 AM CDT 5:43 PM CDT
Civil Twilight 7:01 AM CDT 6:13 PM CDT
Nautical Twilight 6:27 AM CDT 6:47 PM CDT
Astronomical Twilight 5:53 AM CDT 7:21 PM CDT
Moon 1:50 PM CDT (11/2) No Moon Set
Length of Visible Light 11h 11m
Length of Day
10h 11m
Waxing Crescent, 50% of the Moon is Illuminated
Nov 2
Waxing Crescent
Nov 10
Full
Nov 18
Last Quarter
Nov 25
New
Dec 2
First Quarter

Hourly Weather History & Observations

Time (CDT) Temp. Windchill Dew Point Humidity Pressure Visibility Wind Dir Wind Speed Gust Speed Precip Events Conditions
12:53 AM 48.0 °F - 45.0 °F 89% 29.96 in 7.0 mi Calm Calm - N/A   Overcast
1:53 AM 48.0 °F - 45.0 °F 89% 29.94 in 7.0 mi Calm Calm - N/A   Overcast
2:53 AM 50.0 °F - 45.0 °F 83% 29.95 in 7.0 mi Calm Calm - N/A   Overcast
3:53 AM 53.6 °F - 42.8 °F 67% 29.95 in 10.0 mi SSW 6.9 mph - N/A   Mostly Cloudy
4:53 AM 53.1 °F - 43.0 °F 69% 29.96 in 10.0 mi SSW 5.8 mph - N/A   Overcast
5:53 AM 50.0 °F - 45.0 °F 83% 29.99 in 10.0 mi NNW 4.6 mph - 0.00 in   Overcast
6:53 AM 48.2 °F - 42.8 °F 82% 30.01 in 6.0 mi NNE 15.0 mph - N/A   Haze
7:53 AM 48.2 °F - 42.8 °F 82% 30.02 in 10.0 mi NNE 15.0 mph - N/A   Overcast
8:53 AM 46.9 °F - 43.0 °F 86% 30.05 in 9.0 mi NE 12.7 mph - 0.01 in Rain Light Rain
9:06 AM 46.4 °F 41.9 °F 42.8 °F 87% 30.03 in 9.0 mi NE 9.2 mph - 0.00 in Rain Light Rain
9:53 AM 48.0 °F - 43.0 °F 83% 30.06 in 10.0 mi NNE 10.4 mph - 0.00 in   Overcast
10:53 AM 48.0 °F - 44.1 °F 86% 30.06 in 6.0 mi North 8.1 mph - N/A   Overcast
11:53 AM 48.2 °F - 44.6 °F 87% 30.04 in 4.0 mi NNE 10.4 mph - N/A   Overcast
12:53 PM 46.9 °F - 45.0 °F 93% 30.05 in 6.0 mi NNW 6.9 mph - 0.01 in   Overcast
1:08 PM 46.4 °F 40.4 °F 44.6 °F 93% 30.02 in 1.8 mi North 13.8 mph 20.7 mph 0.07 in Rain Heavy Rain
1:18 PM 46.4 °F 41.5 °F 44.6 °F 93% 30.02 in 3.0 mi North 10.4 mph - 0.09 in Rain Light Rain
1:53 PM 46.0 °F 40.2 °F 44.1 °F 93% 30.03 in 5.0 mi North 12.7 mph - 0.11 in Rain Light Rain
2:53 PM 46.0 °F 41.4 °F 43.0 °F 89% 30.05 in 3.0 mi NNW 9.2 mph - 0.05 in Rain Light Rain
3:06 PM 44.6 °F 38.4 °F 42.8 °F 93% 30.03 in 2.5 mi North 12.7 mph - 0.03 in Rain Rain
3:16 PM 44.6 °F 39.2 °F 42.8 °F 93% 30.04 in 4.0 mi NNW 10.4 mph - 0.04 in Rain Light Rain
3:53 PM 45.0 °F 38.5 °F 43.0 °F 93% 30.05 in 4.0 mi North 13.8 mph - 0.13 in Rain Rain
4:07 PM 44.6 °F 38.4 °F 42.8 °F 93% 30.04 in 5.0 mi North 12.7 mph 21.9 mph 0.02 in Rain Light Rain
5:53 PM 39.9 °F 30.8 °F 37.0 °F 89% 30.12 in 4.0 mi North 18.4 mph 27.6 mph 0.17 in Rain Rain
6:27 PM 35.6 °F 29.2 °F 33.8 °F 93% 30.14 in 3.0 mi North 8.1 mph - 0.18 in Rain Heavy Rain
6:42 PM 35.6 °F 29.2 °F 33.8 °F 93% 30.14 in 3.0 mi NNE 8.1 mph - 0.26 in Rain Heavy Rain
6:53 PM 37.0 °F 31.0 °F 35.1 °F 93% 30.17 in 4.0 mi NNE 8.1 mph - 0.30 in Rain Rain
7:53 PM 39.0 °F 32.3 °F 37.0 °F 93% 30.16 in 7.0 mi North 10.4 mph - 0.08 in Rain Light Rain
8:46 PM 39.2 °F 33.0 °F 37.4 °F 93% 30.14 in 10.0 mi North 9.2 mph - 0.05 in Rain Light Rain
8:53 PM 39.2 °F 33.0 °F 37.4 °F 93% 30.14 in 8.0 mi North 9.2 mph - N/A Rain Light Rain
9:10 PM 39.2 °F 32.5 °F 37.4 °F 93% 30.12 in 10.0 mi North 10.4 mph - 0.01 in Rain Light Rain
9:36 PM 41.0 °F 33.9 °F 37.4 °F 87% 30.11 in 10.0 mi NE 12.7 mph - 0.03 in Rain Light Rain
10:42 PM 41.0 °F 35.8 °F 37.4 °F 87% 30.11 in 10.0 mi North 8.1 mph - N/A   Overcast
10:53 PM 39.9 °F 34.5 °F 37.9 °F 93% 30.14 in 10.0 mi North 8.1 mph - N/A   Mostly Cloudy
11:53 PM 41.0 °F 35.8 °F 39.0 °F 93% 30.14 in 10.0 mi North 8.1 mph - N/A   Overcast